Starlink 35731

operational
NORAD ID: 66229 Int'l Des: 2025-244 Owner: SPXS Country: US Constellation: starlink
NOTLE

About Starlink 35731

Description loading...

Live Position

Loading 3D Globe...

Upcoming Passes

Altitude History

Altitude vs Time

uPlot chart will show altitude changes over time

Two-Line Element Set

1 66229C 25244Y 25301.73520833 .02912800 00000+0 41484-2 0 3015
2 66229 53.1566 134.1058 0010862 271.6748 312.3255 16.01906325 12
Epoch: Oct 28, 2025 • Age: 69 hours

Current Status

Altitude 231.2 km
Velocity 7.77 km/s
Sub-Earth Point -30.67°S, 106.31°E
Launch Date Oct 28, 2025
Age 2 days
Type internet

Technical Details

Classification Payload
Mass 575.00 kg
Dry Mass 530.00 kg
Total Mass 575.00 kg
Length 0.30 m
Diameter 4.10 m
Span 29.00 m
Shape Box + pan
Manufacturer SPXS
Bus Type Starlink V2MO
Phase Status In Orbit
Owner/State SPXS/US

Large Constellations

Loading constellations...